Regional Weather Roundup
Issued by NWS

Home | Current Version | Previous Version | Text Only | Print | Product List | Glossary Off
Versions: 1 2 3 4 5 6 7 8 9 10 11 12 13 14 15 16 17 18 19 20 21 22 23 24 25 26 27 28 29 30 31 32 33 34 35 36 37 38 39 40 41 42 43 44 45 46 47 48 49 50

000
ASUS45 KCYS 251010
RWRWY

WYOMING REGIONAL WEATHER ROUNDUP
NATIONAL WEATHER SERVICE CHEYENNE WY
400 AM MDT SAT APR 25 2015

NOTE:  "FAIR" INDICATES FEW OR NO CLOUDS BELOW 12,000 FEET
WITH NO SIGNIFICANT WEATHER AND/OR OBSTRUCTIONS TO VISIBILITY.

WYZ001-251100-
YELLOWSTONE NATIONAL PARK

CITY           SKY/WX    TMP DP  RH WIND       PRES   REMARKS
LK YELLOWSTONE   N/A     31  28  89 VRB5      29.73S WCI  26
W YELLOWSTONE  NOT AVBL

$$
WYZ002>013-054>058-071-098>099-251100-
NORTHERN WYOMING

CITY           SKY/WX    TMP DP  RH WIND       PRES   REMARKS
JACKSON        CLOUDY    36  34  93 S8        29.73R WCI  29
CODY           CLOUDY    43  39  87 N14G22    29.65S
GREYBULL       FAIR      49  40  71 NW16      29.59S
WORLAND        FAIR      44  37  76 W5        29.57R
SHERIDAN       MOCLDY    47  38  71 N10       29.60R
BUFFALO        FAIR      50  36  58 S7        29.61R
GILLETTE       FAIR      45  40  82 S9        29.62S
HULETT         FAIR      45  32  61 CALM      29.66S
NEWCASTLE      FAIR      45  36  70 E6        29.67S

$$
WYZ014>020-022>026-101>103-251100-
CENTRAL WYOMING

CITY           SKY/WX    TMP DP  RH WIND       PRES   REMARKS
BIG PINEY      MOCLDY    33  32  96 N6        29.74R WCI  28
PINEDALE       LGT RAIN  34  34 100 CALM      29.74R
DUBOIS         CLOUDY    34  32  93 NW6       29.67F WCI  29
LANDER         MOCLDY    47  32  56 CALM      29.60F
RIVERTON       FAIR      47  33  58 S5        29.62S
CASPER         FAIR      43  33  68 SW6       29.66S
DOUGLAS        CLOUDY    42  40  92 CALM      29.68S

$$
WYZ021-027>030-104>119-251100-
SOUTHERN WYOMING

CITY           SKY/WX    TMP DP  RH WIND       PRES   REMARKS
EVANSTON       FAIR      33  32  96 SW13      29.81R WCI  24
KEMMERER       CLOUDY    34  34 100 SW13G20   29.77S WCI  25
FORT BRIDGER   SUNNY     36  34  93 W21G28    29.82R WCI  24
ROCK SPRINGS   MOCLDY    37  35  92 SW14      29.77S WCI  28
DIXON          FAIR      43  31  61 S8        29.79S
RAWLINS        FAIR      30  27  88 CALM      29.74S
SARATOGA       FAIR      32  30  93 S8        29.77R WCI  25
LARAMIE        FAIR      34  28  79 S5        29.77R WCI  30
CHEYENNE       FAIR      46  29  51 NW10      29.73R
TORRINGTON     FAIR      41  38  89 CALM      29.67S
PINE BLUFFS    FAIR      37  32  81 W9        29.71R WCI  31

$$



USA.gov is the U.S. government's official web portal to all federal, state and local government web resources and services.